Retour au catalogue

FENGYUN 1C DEB

LostPO
NORAD 40693·DEBRIS·🇨🇳 China

Lancé May 10, 1999 depuis Taiyuan Satellite Launch Center

Loading…

Prochains Passages (prochaines 24 heures)

TLE

PériméSource: Space-Track

Époque: Sep 28, 2022, 19:05 UTC

1 40693U 99025EWZ 22271.79545027  .00001697  00000-0  18354-2 0  9996
2 40693  98.8949 119.5443 0295815 251.7621 105.1119 13.57162093423242

Suivez FENGYUN 1C DEB en temps réel avec AllMySat

Download on the App Store